Hourly Data Report for June 09, 2019

TORONTO CITY
ONTARIO
Current Station Operator: ECCC - MSC

43°40'00.000" N
79°24'00.000" W
112.50 m
6158355
71508
XTO

Download Data

Hourly Data (June 2019)
Hourly Data Report for June 9, 2019
TIME
LST
Temp Definition
°C
Dew Point Definition
°C
Rel Hum Definition
%
Precip. Amount Definition
mm

Wind Dir Definition
10's deg

Wind Spd Definition
km/h
Visibility Definition
km
Stn Press Definition
kPa
Hmdx Definition


Wind Chill Definition


Weather Definition


00:00 17.7 0.5 31 0.0 LegendMM LegendMM   100.84     LegendNANA
01:00 17.7 0.1 30 0.0 LegendMM LegendMM   100.85     LegendNANA
02:00 17.9 0.3 30 0.0 LegendMM LegendMM   100.85     LegendNANA
03:00 17.8 0.6 31 0.0 LegendMM LegendMM   100.85     LegendNANA
04:00 17.1 1.8 36 0.0 LegendMM LegendMM   100.83     LegendNANA
05:00 16.9 2.9 39 0.0 LegendMM LegendMM   100.88     LegendNANA
06:00 16.6 4.0 43 0.0 LegendMM LegendMM   100.90     LegendNANA
07:00 17.5 5.5 45 0.0 LegendMM LegendMM   100.94     LegendNANA
08:00 19.1 5.8 42 0.0 LegendMM LegendMM   100.93     LegendNANA
09:00 20.1 6.6 41 0.0 LegendMM LegendMM   100.94     LegendNANA
10:00 20.9 6.3 39 0.0 LegendMM LegendMM   100.91     LegendNANA
11:00 21.5 7.5 40 0.0 LegendMM LegendMM   100.89     LegendNANA
12:00 20.3 7.7 44 0.0 LegendMM LegendMM   100.88     LegendNANA
13:00 22.1 8.9 43 0.0 LegendMM LegendMM   100.81     LegendNANA
14:00 22.8 10.8 47 0.0 LegendMM LegendMM   100.75     LegendNANA
15:00 23.1 9.3 41 0.0 LegendMM LegendMM   100.72     LegendNANA
16:00 22.9 8.3 39 0.0 LegendMM LegendMM   100.66     LegendNANA
17:00 22.5 8.4 40 0.0 LegendMM LegendMM   100.64     LegendNANA
18:00 21.8 8.2 42 0.0 LegendMM LegendMM   100.60     LegendNANA
19:00 21.3 8.6 44 0.0 LegendMM LegendMM   100.58     LegendNANA
20:00 19.6 8.0 47 0.0 LegendMM LegendMM   100.53     LegendNANA
21:00 19.0 7.2 46 0.0 LegendMM LegendMM   100.52     LegendNANA
22:00 20.0 6.6 42 0.0 LegendMM LegendMM   100.49     LegendNANA
23:00 20.7 6.7 40 0.0 LegendMM LegendMM   100.44     LegendNANA

Notes on Data Quality.

Legend

  • E = Estimated
  • M = Missing
  • NA = Not Available*
  • [empty] = Indicates an unobserved value
Date modified: